Location: Ammerl�gen
(47.2167°N, 9.6000°E)
Time: 10:40:03
(UTC+00:00)

S3M - Pass Details

Date: 21 April 2021
Orbit: 949 x 1004 km, 83.0° (Epoch: 06 May)

Event Time Altitude Azimuth Distance (km) Brightness Sun altitude
Exits shadow 21:40:09 62° 123° (ESE) 1,120 4.0 -26.5°
Maximum altitude 21:40:43 65° 94° (E) 1,096 4.0 -26.6°
Drops below altitude 10° 21:47:04 10° 14° (NNE) 2,788 7.0 -27.1°
Sets 21:49:37 0° 12° (NNE) 3,740 7.8 -27.3°
